Theta_e
337 335 336 337 339 340 341 342 343 344 345 345 344 344 342 340 342 345 345 342 340 339 339 332 322 317 316 318 320 319 322 324 321 320 323 327 328 328 328 327 327 328
338 336 336 336 337 338 340 341 342 343 344 345 344 343 342 341 341 343 343 342 340 339 338 334 324 317 316 318 319 319 320 322 321 319 320 323 327 328 327 328 328 328
339 338 337 337 337 338 338 340 341 343 344 345 345 343 343 342 342 342 341 341 340 339 338 336 329 320 316 317 318 318 319 320 320 318 318 319 324 327 328 328 329 328
342 340 338 337 337 337 338 339 341 342 345 345 345 344 343 343 343 342 342 341 340 340 338 337 334 324 317 317 318 318 319 319 319 319 318 317 319 324 328 328 329 328
345 341 340 339 338 338 338 339 340 341 344 345 345 345 344 344 344 343 343 342 340 340 339 338 336 326 317 316 317 318 319 319 318 319 318 317 318 321 326 328 329 328
348 345 343 342 341 340 339 339 340 341 342 343 344 345 345 345 344 343 342 342 341 340 340 339 337 328 319 316 317 317 318 318 319 318 317 317 318 320 324 327 328 328
350 348 346 345 343 342 341 339 340 341 341 342 343 344 344 344 344 343 342 342 342 341 340 340 338 333 323 317 316 317 317 318 318 318 317 317 318 320 322 325 326 326
351 350 348 347 346 344 343 340 340 341 342 342 342 342 343 343 342 342 342 342 343 342 341 340 340 338 329 319 316 316 317 317 317 318 318 318 318 319 321 323 325 325
352 352 351 350 348 346 344 341 340 341 342 342 342 342 342 342 342 342 342 343 343 342 342 341 340 341 335 325 317 316 317 317 318 318 318 318 319 319 320 322 323 323
353 353 352 352 350 347 344 342 340 341 341 341 342 342 342 342 341 342 342 343 343 343 343 342 341 342 340 332 324 318 316 317 317 318 319 319 319 319 320 321 321 321
353 353 353 352 351 347 345 342 341 342 341 341 341 342 342 342 341 342 343 343 344 343 343 343 342 341 341 338 332 322 317 317 317 318 319 319 318 319 319 319 320 320
354 353 352 351 350 347 343 342 342 342 340 340 341 341 342 342 342 342 342 343 344 345 344 344 342 341 340 341 337 328 319 316 317 317 319 320 319 318 318 318 319 320
353 352 351 349 348 344 342 341 342 341 341 341 341 341 342 341 342 341 341 343 345 346 346 345 343 342 341 341 340 335 325 318 316 317 318 320 319 318 318 318 319 321
353 352 349 348 346 343 341 341 342 341 342 342 343 342 341 341 340 341 342 345 347 347 347 346 345 344 343 343 342 340 332 321 316 317 319 321 320 318 318 318 319 321
354 352 351 349 348 345 342 342 342 342 342 343 343 343 342 341 341 341 343 345 347 348 348 347 346 344 344 344 343 343 339 328 318 317 319 321 322 320 319 318 319 320
355 354 353 352 351 349 345 343 343 343 343 343 343 343 342 342 343 344 345 345 346 348 348 347 347 345 344 345 345 345 343 334 321 316 319 321 321 320 319 319 319 319
356 355 355 354 353 351 348 346 346 346 345 344 343 343 343 344 346 346 347 347 348 348 348 348 347 345 345 347 348 347 345 339 328 319 318 320 320 320 320 319 319 320
355 355 356 355 354 353 351 350 349 349 349 347 345 345 344 345 347 348 348 349 350 350 350 349 348 347 348 349 349 348 346 345 338 324 317 320 321 320 321 320 319 319
355 356 356 355 354 354 353 354 353 353 352 350 347 345 346 348 348 349 350 350 351 351 350 350 350 349 350 351 350 348 347 347 344 332 319 318 320 319 320 321 320 320
356 356 356 355 355 355 356 356 355 355 354 352 350 349 349 350 350 350 350 351 351 351 351 351 351 351 352 352 351 351 349 347 345 337 324 319 319 318 319 322 322 321
356 356 356 357 357 357 357 357 355 355 355 354 354 353 351 351 350 351 351 351 352 352 352 353 353 353 354 354 352 353 351 346 344 340 330 321 318 317 319 322 324 324
357 356 357 358 359 359 358 357 356 355 355 354 355 354 353 353 353 352 352 352 353 354 354 354 355 355 355 354 354 354 350 346 344 342 336 327 320 317 319 323 326 327
357 357 357 359 360 360 360 358 358 356 355 354 354 354 354 354 354 354 354 355 355 355 355 356 356 357 356 356 356 355 352 348 346 344 340 333 324 317 319 325 331 332
358 358 358 359 361 361 360 359 358 357 355 354 353 353 353 353 354 355 356 357 357 357 357 357 358 358 358 357 357 356 354 352 349 346 342 337 328 320 321 329 334 335
359 359 359 360 361 361 360 360 359 357 356 354 354 353 353 353 355 357 358 358 359 359 359 359 359 359 359 358 357 356 354 352 350 346 342 339 334 326 323 325 329 333
359 360 360 360 360 361 360 360 359 358 357 356 356 355 355 356 357 358 359 359 359 359 360 360 360 360 359 357 356 355 353 350 348 345 343 341 337 331 327 325 326 332
Wind_Speed
42 42 41 39 38 35 34 33 33 33 32 31 30 29 27 26 25 24 23 21 18 16 13 11 13 16 17 17 17 15 13 13 14 16 18 18 17 16 17 16 15 15
43 43 42 41 40 38 36 35 34 34 33 32 31 30 28 27 26 25 25 23 20 18 15 13 14 17 19 18 17 15 14 14 14 15 17 17 17 18 18 17 16 16
44 44 44 42 41 39 37 36 35 34 34 33 32 31 30 28 27 27 26 24 22 20 16 15 16 19 21 20 18 16 14 14 13 14 15 16 18 19 19 18 17 17
45 45 44 43 41 40 38 37 37 36 35 34 34 33 31 30 29 29 27 26 25 22 18 16 18 20 22 22 20 17 16 14 14 14 15 15 17 20 20 19 18 18
46 45 44 43 42 41 39 39 39 38 37 36 35 34 33 32 31 31 29 28 26 24 21 19 19 21 23 23 21 19 18 17 16 16 17 17 17 20 21 21 19 19
45 45 45 44 43 42 41 40 40 39 38 37 36 35 34 34 33 32 31 30 28 26 23 21 20 22 23 24 23 22 20 19 19 18 19 18 18 20 22 22 21 20
45 46 46 45 44 43 42 42 41 40 39 38 38 37 36 35 34 33 32 31 29 27 25 22 22 22 23 24 24 24 22 22 21 20 20 20 20 21 23 23 23 21
44 45 45 46 45 44 44 43 42 41 40 40 39 39 38 36 35 35 34 33 31 29 27 25 24 24 24 24 25 25 24 24 23 22 22 22 22 22 24 24 23 22
44 44 45 46 46 45 45 44 44 43 42 41 41 40 39 38 37 36 35 34 33 32 29 27 26 26 25 25 25 25 25 25 25 24 23 24 23 23 23 24 23 22
44 44 45 46 46 46 46 45 45 44 43 42 42 41 40 39 38 37 36 36 35 34 32 30 29 28 28 27 25 25 26 26 26 25 24 24 24 23 23 24 23 22
44 44 45 46 46 47 46 46 46 45 44 43 43 42 41 40 40 39 38 38 37 36 34 32 31 30 30 28 26 25 26 26 26 25 24 24 24 23 23 23 24 23
45 44 45 46 46 47 46 46 46 46 45 44 43 43 42 41 41 40 40 39 38 37 36 34 33 33 32 30 28 26 27 27 27 26 25 24 24 24 24 23 24 24
46 45 44 44 46 46 46 46 46 46 45 45 44 43 43 42 42 41 40 40 39 38 37 36 35 35 34 33 31 28 27 28 28 26 24 23 24 25 24 24 24 23
47 45 44 43 44 46 46 47 47 47 46 45 44 44 43 43 42 41 41 40 40 39 39 38 37 37 37 36 34 32 29 28 29 27 24 23 23 24 25 25 24 24
47 46 45 44 44 46 48 48 48 48 47 46 45 45 44 43 42 42 41 41 41 40 40 40 40 40 40 38 37 34 31 28 28 27 24 22 23 24 26 26 25 25
48 47 46 46 46 47 48 49 49 48 48 47 46 45 44 44 43 43 43 42 42 42 42 42 42 42 42 40 38 35 32 28 28 28 26 24 24 24 25 27 26 26
48 48 48 47 47 47 48 49 49 49 49 48 47 47 45 45 45 44 44 43 43 43 43 44 44 43 43 41 39 36 31 29 30 31 29 27 26 25 25 26 27 27
49 48 49 48 48 48 49 49 50 50 50 49 48 47 47 46 46 46 45 44 44 44 44 45 45 44 43 42 40 37 32 30 32 33 30 29 27 26 26 28 28 28
49 49 49 49 49 49 49 49 50 50 50 50 49 48 47 47 46 46 46 45 45 45 45 45 45 44 43 42 42 40 34 31 32 32 31 30 29 28 29 30 30 29
50 50 50 50 49 49 48 49 50 50 50 50 49 48 47 47 47 47 46 46 46 46 46 45 45 44 43 42 43 42 36 31 30 32 33 31 29 30 31 30 30 29
50 50 50 50 49 49 49 49 50 50 50 49 49 48 48 48 48 47 47 47 47 46 45 45 44 43 42 41 41 42 39 33 28 29 33 33 30 31 32 30 29 28
52 51 50 50 49 49 49 49 49 50 50 49 49 49 49 48 48 47 47 47 46 45 45 44 43 42 41 40 38 38 39 36 29 26 30 33 33 32 30 29 28 27
53 52 51 50 50 50 49 49 49 49 49 49 49 49 49 49 49 48 47 46 45 45 44 43 42 42 41 39 36 34 34 33 31 29 29 31 32 31 29 28 28 27
54 53 52 51 51 51 50 49 48 47 47 47 48 49 49 48 48 47 46 45 44 44 42 41 41 41 40 38 35 30 28 27 29 31 31 30 29 30 29 28 28 27
55 55 53 53 52 51 50 49 48 46 45 45 46 47 47 46 46 46 45 44 43 42 41 40 41 40 39 37 32 27 25 25 28 31 31 29 28 29 30 29 28 27
56 56 55 54 54 52 50 49 47 46 45 45 45 44 44 45 45 45 44 43 42 41 40 40 41 38 36 34 28 24 25 26 28 29 28 27 28 29 29 30 29 27
Wind_Direction
221 221 221 222 223 223 222 220 219 220 222 223 222 224 227 228 227 228 229 230 232 235 238 238 231 231 230 225 224 221 209 206 207 208 215 218 220 220 220 225 229 224
222 221 221 222 224 224 224 223 223 223 224 224 226 228 230 230 229 231 233 233 233 233 234 236 233 233 231 225 223 223 216 213 211 209 212 214 216 219 219 221 226 224
224 222 221 222 224 224 224 224 225 226 226 226 227 229 230 231 230 232 235 235 234 232 232 234 233 233 233 228 223 224 223 221 220 218 217 216 216 220 222 221 224 224
226 224 223 223 224 225 224 224 225 226 227 227 228 229 230 230 231 233 234 235 234 231 231 234 234 232 232 230 225 224 226 227 227 227 227 223 220 222 223 222 222 223
227 226 225 225 225 226 225 224 225 226 227 228 228 229 229 230 231 232 233 233 232 230 230 233 234 231 230 229 226 224 225 227 228 229 231 230 226 225 225 225 223 223
228 227 227 226 226 226 227 226 226 226 227 228 229 229 229 230 231 231 231 231 231 230 230 232 233 230 230 229 226 224 224 225 227 230 232 232 229 228 227 226 226 225
228 228 227 227 227 227 228 227 226 227 228 229 230 231 231 231 232 231 231 231 231 231 231 232 233 232 232 231 228 226 224 225 226 229 232 232 229 228 227 226 227 227
229 229 228 228 228 228 229 228 227 227 228 229 230 232 232 233 233 232 231 230 231 232 232 233 234 234 234 233 232 229 226 225 225 226 229 230 229 228 227 225 226 228
229 229 228 228 228 229 229 229 228 228 229 230 231 232 232 233 234 234 232 231 232 233 233 233 233 234 234 235 235 234 231 228 225 224 227 229 229 229 227 226 226 227
228 229 229 228 229 229 229 228 228 229 230 231 232 232 233 233 234 234 234 233 233 234 233 233 234 235 235 235 236 238 237 233 229 226 226 228 231 232 231 230 229 228
227 228 229 229 229 229 229 229 228 229 231 231 232 233 234 234 234 234 234 233 234 234 235 235 236 237 238 237 238 239 239 238 233 229 228 230 231 233 234 233 232 231
227 228 229 229 229 228 228 228 228 229 231 231 232 233 234 235 235 235 236 236 235 235 236 238 239 241 241 240 240 240 241 240 237 232 231 233 234 234 235 235 235 233
227 228 229 229 230 228 228 228 228 229 230 231 232 233 234 235 236 237 238 238 238 237 238 240 242 243 244 243 241 240 242 242 239 233 232 236 238 236 235 236 236 233
227 228 229 230 230 229 228 228 229 229 230 231 232 233 234 236 237 238 239 239 239 240 240 242 244 245 245 244 242 240 240 242 240 235 234 238 242 240 238 236 234 232
227 228 229 229 229 229 228 228 229 229 230 231 232 234 235 236 237 239 240 240 241 241 241 243 245 246 247 246 244 242 240 241 241 236 235 242 246 245 243 239 235 232
225 227 227 228 228 229 229 229 229 229 230 231 233 235 236 236 236 238 239 241 242 242 242 244 246 249 249 248 247 245 242 242 242 237 235 241 244 244 245 244 240 235
225 226 226 227 228 229 229 229 229 229 230 232 233 235 236 236 236 237 239 240 241 242 244 245 248 251 251 250 247 243 241 244 245 239 235 240 243 243 245 247 246 240
225 226 226 227 228 229 229 228 228 228 229 231 232 234 236 236 236 238 240 241 241 243 245 247 251 253 253 251 244 236 238 246 246 238 236 241 246 248 249 249 247 243
226 225 226 227 228 229 229 227 226 227 228 229 232 234 235 235 237 238 240 241 242 244 246 249 252 254 253 250 240 235 240 247 244 236 234 240 248 253 254 251 246 241
225 226 227 227 228 228 227 227 226 226 227 229 231 233 233 234 236 238 240 242 243 245 247 250 253 255 253 247 241 242 246 244 243 239 233 235 246 253 256 254 247 241
223 226 227 227 227 226 226 227 227 226 227 228 230 231 233 235 237 238 240 242 244 246 247 250 253 254 251 246 245 249 247 238 241 243 234 234 243 250 255 255 248 243
222 225 226 226 225 225 225 226 227 227 228 228 230 232 233 235 236 238 240 241 243 245 247 250 253 252 250 247 248 252 245 236 241 246 237 234 239 246 253 254 248 245
222 223 225 225 224 224 225 226 226 227 228 228 230 231 233 235 236 237 239 240 242 244 246 248 251 251 249 249 249 250 247 244 248 248 240 236 238 242 248 251 248 247
221 222 224 224 224 224 224 225 225 226 228 228 230 232 233 235 236 237 238 239 241 243 245 248 250 251 251 250 249 250 251 254 255 249 240 238 240 242 244 246 246 247
221 221 223 223 224 224 224 225 225 225 227 228 230 232 234 235 236 236 237 239 240 242 245 247 248 249 250 250 249 251 254 254 253 248 242 241 243 244 245 244 243 245
221 221 221 222 223 224 224 224 225 224 225 226 228 230 232 234 235 236 237 238 240 242 243 244 245 246 247 248 248 252 253 250 247 247 246 246 244 244 248 247 242 240